Theta_e
357 357 357 356 354 354 354 357 353 353 350 347 346 347 347 346 343 337 339 341 341 335 339 339 336 335 334 335 333 333 333 333 332 333 332 330 330 330 330 330 330 329 328
359 359 358 358 357 356 353 355 358 355 350 346 346 347 347 346 345 336 338 342 341 337 336 339 339 336 336 336 333 333 332 331 332 330 331 331 331 331 329 328 329 329 327
359 359 360 360 359 356 354 355 356 359 354 351 348 348 348 347 346 343 337 338 341 339 337 338 337 338 336 337 334 333 333 335 334 333 332 331 331 331 330 329 329 328 328
360 359 359 360 361 359 356 355 355 357 356 354 351 348 348 347 346 345 341 339 341 340 336 338 339 338 336 334 333 334 335 333 333 332 332 331 331 330 330 329 329 328 327
361 361 360 359 360 361 360 357 356 356 357 355 353 351 349 347 347 346 343 340 341 341 338 337 339 338 338 337 333 334 334 329 332 331 331 329 329 330 328 329 329 328 326
361 362 361 361 360 360 361 360 358 357 357 357 355 353 351 349 347 346 345 342 340 340 340 337 336 336 337 336 333 335 329 331 333 330 329 329 328 328 327 326 328 328 325
361 362 362 362 361 361 360 361 361 359 357 359 359 355 352 351 349 347 346 343 341 341 340 336 333 335 336 336 336 335 327 333 332 330 328 328 328 329 325 328 329 328 327
360 361 362 361 361 361 361 361 361 362 359 358 358 358 356 354 352 349 347 344 342 341 340 338 333 334 338 338 335 330 330 332 331 329 327 327 329 328 328 329 329 328 327
357 360 361 361 360 360 360 360 360 361 361 360 360 358 356 355 356 353 347 343 341 341 340 339 334 336 337 336 335 328 330 332 330 330 330 330 329 328 327 326 326 326 322
354 355 359 360 359 359 359 359 360 360 361 361 361 360 359 359 358 354 349 345 341 340 338 337 336 338 338 336 328 330 332 330 330 330 329 327 327 326 325 322 321 323 322
352 353 355 358 358 358 358 359 359 360 360 361 360 359 359 359 358 352 347 344 342 338 337 335 335 336 335 332 329 330 330 329 329 329 327 324 321 319 320 320 318 314 315
350 351 351 355 356 357 358 359 359 360 359 356 356 353 354 354 352 348 346 344 340 336 334 332 332 332 331 331 331 330 330 329 329 327 323 320 319 321 318 315 313 312 312
349 349 352 353 355 357 358 360 360 358 354 350 350 346 348 348 347 346 344 341 338 336 337 336 335 334 333 332 331 330 330 329 327 323 319 319 320 320 318 313 312 310 309
353 354 358 359 360 360 360 359 357 354 350 347 348 345 345 344 344 342 340 338 337 337 336 335 333 333 331 329 328 327 328 327 324 320 320 319 321 321 314 312 310 308 308
362 363 363 360 358 352 351 351 351 350 349 345 345 345 342 340 341 339 339 339 337 337 334 332 331 330 330 327 326 326 325 324 321 320 319 320 321 317 313 311 308 308 307
357 351 346 341 337 334 333 338 344 348 348 349 347 345 343 342 340 341 340 339 338 336 333 332 330 327 326 326 325 325 323 322 322 321 320 320 318 312 310 307 307 306 306
349 344 340 339 338 338 336 336 328 339 343 343 342 342 341 340 339 338 335 334 331 330 329 328 328 328 328 327 327 326 325 325 324 322 320 314 310 308 307 307 306 305 305
344 343 342 340 340 341 339 336 336 335 332 336 340 340 339 338 337 334 332 330 328 327 328 328 328 328 325 322 322 321 319 319 321 318 311 309 307 306 307 305 305 304 305
342 341 341 340 339 337 334 332 334 331 328 324 328 333 335 336 335 331 328 326 326 326 325 325 323 321 320 318 316 315 314 314 312 311 308 306 307 305 305 304 304 305 304
343 341 340 339 338 336 335 334 332 330 328 326 326 326 327 328 326 326 326 326 325 323 322 321 318 315 315 315 314 313 312 311 309 308 306 307 305 304 304 304 304 304 304
343 342 341 340 339 338 335 333 332 333 330 327 327 328 328 327 326 326 326 325 322 320 320 316 315 315 314 314 313 312 309 309 306 305 306 304 304 303 304 304 304 304 304
340 342 341 341 339 339 338 335 333 333 330 327 326 327 326 327 326 325 324 322 321 319 317 316 316 316 314 313 312 311 308 306 305 304 304 303 303 303 304 304 304 303 302
333 336 335 335 336 335 336 337 334 331 329 327 325 324 324 325 324 323 322 321 320 320 316 316 316 314 312 310 309 308 306 304 304 304 303 303 303 303 303 303 303 302 302
332 331 330 329 328 328 328 330 333 332 329 328 327 325 323 324 323 322 322 322 320 320 317 316 316 315 313 310 307 305 305 302 302 303 302 301 299 300 303 303 302 301 302
329 329 329 328 328 328 327 328 330 330 329 328 327 326 322 323 323 323 324 324 322 319 317 316 316 315 313 311 310 307 303 301 301 301 300 299 298 296 302 302 301 302 302
330 328 327 327 327 328 328 328 327 326 327 326 326 325 325 322 323 323 323 323 323 319 316 316 315 314 313 312 310 308 305 301 300 299 297 296 294 297 302 303 301 301 301
Wind_Speed
42 41 38 41 42 41 41 37 35 35 36 35 35 34 33 31 28 29 27 24 21 22 21 21 18 16 14 12 8 4 7 8 5 3 7 7 7 10 10 12 15 17 18
42 41 40 38 39 41 45 43 36 36 38 35 35 38 38 36 32 32 31 30 28 27 25 22 22 19 20 18 14 13 10 9 6 7 8 10 10 11 13 17 17 15 17
40 39 37 37 38 43 45 42 44 39 40 37 36 36 40 39 37 34 34 34 33 29 28 25 24 21 18 17 16 14 13 10 6 7 9 13 16 16 17 14 14 9 8
41 40 38 39 42 44 45 42 42 44 42 42 38 36 37 40 39 38 36 36 34 29 28 27 27 24 23 22 18 17 14 11 15 8 16 17 19 18 19 18 14 17 21
42 41 42 43 41 40 39 39 40 40 42 42 41 38 37 39 42 42 39 38 37 33 31 28 23 23 24 23 19 19 12 16 16 7 14 22 22 24 17 12 13 17 19
41 43 42 40 39 39 38 37 37 38 40 41 40 40 40 40 41 42 40 40 37 35 33 31 25 22 21 24 23 20 17 19 14 6 15 21 25 23 17 16 15 13 4
42 38 40 39 39 40 38 35 35 37 35 38 39 38 40 41 42 41 39 39 34 31 29 30 24 23 22 23 23 22 20 18 15 12 24 24 29 27 19 19 20 19 21
40 38 38 39 39 38 37 37 35 34 35 36 37 39 40 42 41 39 37 36 32 30 31 30 27 24 23 22 20 20 17 19 18 19 24 27 28 23 20 20 20 20 21
36 38 40 40 38 36 37 36 34 32 31 33 38 39 40 41 39 38 33 31 28 26 25 25 24 21 21 21 21 20 22 25 22 20 20 18 17 17 16 16 16 17 13
41 43 44 41 38 38 37 35 33 34 34 32 33 36 39 38 37 35 32 31 26 24 23 22 22 22 21 20 22 22 20 24 19 15 13 13 12 14 14 16 17 17 18
46 41 36 39 40 38 34 33 33 33 28 30 29 30 31 35 32 29 28 27 26 26 26 25 23 20 20 21 22 21 23 20 17 14 11 13 13 14 11 10 5 9 13
34 33 34 36 36 34 35 32 33 31 28 28 30 25 25 26 24 22 21 20 20 20 20 21 21 20 21 24 23 23 21 19 14 11 11 12 11 8 7 9 7 10 11
34 33 34 33 34 35 36 32 30 32 28 25 21 19 23 20 19 19 20 20 18 19 18 15 14 14 15 17 19 18 16 15 13 11 11 11 9 9 10 7 10 11 14
33 32 32 34 34 33 35 36 33 31 26 24 30 25 24 25 23 21 22 21 20 22 18 15 14 11 9 10 13 14 13 13 13 13 12 10 10 11 9 9 11 14 16
30 27 26 26 27 29 27 22 24 24 30 28 26 29 24 20 23 20 22 23 23 21 22 15 13 13 13 12 10 10 12 14 16 15 13 11 12 10 10 8 12 13 14
27 32 28 28 27 26 25 29 22 22 14 17 22 21 19 17 18 16 16 15 15 15 17 18 15 14 13 13 13 14 15 15 16 14 12 11 9 8 8 9 10 11 15
31 25 23 26 27 28 27 32 17 18 20 18 22 21 18 20 18 19 15 13 12 14 14 16 14 13 15 15 17 15 12 12 13 11 10 7 4 6 9 8 8 12 17
22 26 26 22 28 26 24 35 35 21 20 25 24 23 21 21 19 20 18 16 15 15 15 13 11 12 13 11 9 9 7 6 7 8 6 5 7 7 6 7 10 14 17
22 15 26 22 24 27 22 26 26 14 14 23 24 24 24 26 28 23 19 16 17 17 14 11 11 14 16 14 12 11 10 10 8 6 6 6 3 4 5 8 12 14 16
26 21 22 24 24 20 28 30 22 20 22 23 24 26 25 24 24 22 18 17 16 12 10 12 19 19 16 13 11 10 9 8 6 5 5 6 4 2 5 9 10 13 17
19 19 22 24 21 20 21 22 23 24 23 23 24 27 27 27 25 22 21 21 17 13 19 24 20 16 12 10 9 8 6 5 4 4 5 8 4 2 5 8 11 14 17
14 19 20 19 20 23 23 25 25 24 26 25 24 23 26 23 19 21 21 20 18 17 25 22 19 14 11 9 10 10 9 7 7 6 10 8 5 3 4 8 12 13 16
16 20 17 16 15 17 23 27 25 24 24 22 21 21 23 22 20 21 21 18 19 18 27 23 18 13 10 7 9 10 8 7 7 11 10 6 5 5 4 8 10 12 14
12 13 18 18 20 20 22 20 23 23 24 25 25 23 26 26 22 21 20 20 21 24 27 24 16 13 10 11 11 9 7 8 10 10 8 6 5 7 6 7 9 10 13
7 10 13 17 22 21 16 14 11 15 23 25 24 24 22 29 25 21 20 23 25 28 28 23 16 13 13 11 10 9 10 11 12 11 9 10 10 8 4 3 7 10 10
13 17 17 19 20 20 20 16 18 19 18 20 22 23 27 29 25 20 17 20 26 31 30 27 21 17 14 13 10 9 8 11 11 11 11 11 10 9 4 4 4 6 9
Wind_Direction
195 197 199 206 210 213 220 224 218 217 214 212 211 213 215 213 211 212 216 217 225 225 229 233 237 235 233 233 236 246 237 231 221 262 217 268 244 245 275 282 278 276 281
194 195 199 202 207 211 217 223 223 217 217 215 217 218 218 216 214 214 217 219 222 223 229 231 235 240 244 245 253 247 251 231 237 265 282 282 280 286 291 298 293 281 289
193 193 196 199 202 211 217 217 223 223 220 218 219 219 220 218 217 220 222 224 224 226 231 233 239 237 239 234 241 246 249 264 246 272 291 300 300 303 304 307 301 290 298
193 194 196 198 203 210 216 216 219 220 223 222 222 222 220 220 223 224 225 228 228 226 230 234 240 242 249 246 246 250 262 276 283 310 313 305 310 306 298 298 282 301 312
192 194 199 202 204 207 211 213 215 219 221 226 225 224 224 223 225 226 228 230 228 225 229 235 241 245 251 249 251 248 243 258 269 263 303 298 295 294 280 276 275 299 308
195 198 198 201 202 205 208 209 211 214 218 223 225 226 223 225 231 233 234 233 232 228 229 232 239 247 249 244 244 241 241 255 241 247 276 269 278 286 286 283 272 288 292
198 200 200 198 200 203 204 204 206 208 210 218 222 223 227 230 234 238 236 235 233 231 233 231 233 242 245 242 243 240 249 257 252 251 263 260 278 286 292 294 296 297 291
198 198 201 200 201 201 200 203 203 204 204 210 217 225 229 232 236 238 237 232 235 238 236 233 236 244 238 238 235 232 243 253 264 250 263 270 275 284 285 291 291 289 286
197 200 200 202 199 197 201 200 199 199 201 206 214 219 224 230 236 238 229 222 226 233 236 232 233 241 240 240 243 241 256 262 264 267 272 274 278 283 288 288 287 283 284
200 203 200 198 198 197 199 198 195 198 202 202 206 217 224 228 232 230 221 219 216 219 213 222 235 240 243 235 243 246 250 264 271 276 268 267 274 279 286 293 295 283 286
206 206 199 195 196 199 194 193 194 195 193 193 197 205 219 226 224 220 210 211 219 221 226 234 236 232 237 243 252 252 260 269 273 274 275 286 291 294 306 307 307 306 289
204 199 199 194 193 192 189 189 190 184 180 176 180 187 203 217 216 204 208 218 219 224 231 239 247 252 251 250 250 256 261 266 255 249 268 283 300 308 320 303 301 309 303
192 191 189 187 188 188 180 176 173 176 172 171 164 157 176 190 195 209 210 209 211 218 233 246 248 246 245 246 249 256 263 242 240 248 266 283 290 303 298 297 307 308 308
175 180 181 177 174 175 177 175 172 170 162 160 155 174 177 186 187 194 207 211 211 220 224 223 223 234 248 249 255 254 233 229 236 243 255 272 278 294 277 299 307 315 312
148 153 160 155 151 144 146 154 165 169 176 156 156 168 166 172 191 191 203 206 208 216 212 210 221 238 243 246 235 236 235 235 242 254 258 266 277 266 282 294 310 313 315
138 137 139 131 127 119 108 105 136 138 150 161 163 168 171 188 176 182 210 209 193 198 200 213 226 234 231 227 235 242 243 245 247 251 250 266 250 265 277 301 310 314 318
136 127 122 130 123 118 117 106 77 127 138 149 145 150 154 162 171 165 179 182 169 181 201 205 216 221 231 242 258 248 240 243 252 248 242 245 239 277 295 305 319 327 328
106 132 133 148 129 136 150 133 145 148 149 145 154 155 157 160 163 159 166 166 173 196 205 207 215 226 234 205 181 175 167 187 197 182 188 261 282 279 292 313 326 325 325
119 112 117 119 125 141 134 120 127 151 134 139 140 143 151 157 155 167 178 183 194 202 199 200 208 192 169 161 158 157 161 170 182 203 226 209 258 280 305 318 324 325 329
124 132 127 128 131 133 129 129 142 156 163 149 150 154 159 158 160 178 183 185 194 192 200 188 167 156 154 159 159 162 170 179 198 220 246 235 220 240 332 335 332 333 336
123 131 131 138 138 132 122 136 161 163 168 180 179 179 177 181 185 188 194 193 189 186 168 165 162 163 162 163 165 169 187 190 223 288 220 184 196 283 342 339 333 339 344
146 157 153 151 150 146 154 165 174 182 186 189 191 190 193 193 193 196 198 198 194 185 173 176 176 184 188 185 189 200 203 207 235 235 186 195 215 255 347 352 345 348 348
120 141 142 154 169 170 177 186 176 188 187 186 185 187 192 197 195 198 200 196 197 195 187 184 177 174 173 185 194 201 215 213 198 180 189 221 265 263 318 344 341 347 348
108 120 116 115 118 126 136 160 186 192 187 187 182 187 192 191 199 202 200 200 199 199 193 191 192 185 190 194 198 215 239 218 198 204 221 239 273 265 286 323 341 342 347
141 143 137 138 137 133 123 123 146 183 188 187 181 187 198 200 194 200 221 224 210 201 197 202 205 207 199 202 209 223 223 215 212 217 235 255 266 257 250 305 331 347 357
121 125 128 126 132 136 143 161 190 196 181 189 192 196 203 198 198 210 216 218 209 203 202 204 204 201 204 214 216 222 226 220 230 248 257 247 235 207 215 286 329 353 360